Tracking 29892 objects as of 21-Nov-2024
HD Live streaming from Space Station
objects crossing your sky now

STARLINK-3135

Track STARLINK-3135 now!
10-day predictions
STARLINK-3135 is classified as:


NORAD ID: 49424
Int'l Code: 2021-104S
Perigee: 545.9 km
Apogee: 547.9 km
Inclination: 53.2 °
Period: 95.4 minutes
Semi major axis: 6917 km
RCS: Unknown
Launch date: November 13, 2021
Source: United States (US)
Launch site: AIR FORCE EASTERN TEST RANGE (AFETR)
Your satellite tracking list
Your tracking list is empty




NASA's NSSDC Master Catalog

Two Line Element Set (TLE):
1 49424U 21104S   24324.94725230  .00002181  00000-0  15509-3 0  9993
2 49424  53.2159 200.3178 0001431  81.1714 278.9440 15.08844267166958
Source of the keplerian elements: AFSPC